Date String (YYYY-MM-DD hh:mm:ss) UTC,Instrument flags,Ambient pressure (hPa),Sample flow (lpm),Bypass flow (lpm),Sample temperature (°C),Ambient temperature (°C),ASC tube jacket temperature (°C),LED temperature (°C),Box temperature (°C),Sample RH (%),Span deviation,Mass concentration (μg/m³),Mass concentration (μg/m³),Mass concentration (μg/m³)
DateTimeUTC,F1_M11,P_M11,Q1_M11,Q2_M11,T1_M11,T2_M11,T3_M11,T4_M11,T5_M11,U1_M11,ZSPAN_M11,X0_M11,X2_M11,X1_M11
2022-09-21 03:00:00,,0828.5,5.00,0.00,29.8,26.1,00.0,38.3,31.5,16.8,0000.0,0012.23,0003.54,0002.49
2022-09-21 03:01:00,,0828.4,5.00,0.00,29.7,26.3,00.0,38.3,31.4,16.8,0000.0,0011.44,0003.50,0002.51
2022-09-21 03:02:00,,0828.5,5.00,0.00,29.6,26.6,00.0,38.3,31.3,17.0,0000.0,0011.05,0003.50,0002.52
2022-09-21 03:03:00,,0828.4,4.99,0.00,29.6,27.0,00.0,38.3,31.3,17.1,0000.0,0010.91,0003.50,0002.53
2022-09-21 03:04:00,,0828.3,5.01,0.00,29.5,27.4,00.0,38.3,31.3,17.1,0000.0,0010.56,0003.52,0002.54
2022-09-21 03:05:00,,0828.4,5.00,0.00,29.5,27.6,00.0,38.3,31.3,17.1,0000.0,0009.89,0003.49,0002.54
2022-09-21 03:06:00,,0828.3,5.00,0.00,29.5,27.8,00.0,38.3,31.4,17.2,0000.0,0009.46,0003.50,0002.54
2022-09-21 03:07:00,,0828.3,5.00,0.00,29.6,28.0,00.0,38.3,31.4,17.2,0000.0,0009.42,0003.49,0002.54
2022-09-21 03:08:00,,0828.3,5.00,0.00,29.6,28.2,00.0,38.3,31.5,17.1,0000.0,0009.61,0003.50,0002.53
2022-09-21 03:09:00,,0828.3,4.99,0.00,29.6,28.4,00.0,38.3,31.5,17.2,0000.0,0009.87,0003.52,0002.53
2022-09-21 03:10:00,,0828.4,5.00,0.00,29.7,28.4,00.0,38.3,31.6,17.2,0000.0,0009.73,0003.50,0002.50
2022-09-21 03:11:00,,0828.4,5.00,0.00,29.7,28.5,00.0,38.3,31.6,17.2,0000.0,0009.45,0003.48,0002.49
2022-09-21 03:12:00,,0828.3,4.99,0.00,29.7,28.6,00.0,38.4,31.7,17.2,0000.0,0009.67,0003.51,0002.47
2022-09-21 03:13:00,,0828.4,5.00,0.00,29.8,28.7,00.0,38.4,31.7,17.2,0000.0,0009.88,0003.53,0002.45
2022-09-21 03:14:00,,0828.4,5.01,0.00,29.8,28.8,00.0,38.4,31.8,17.2,0000.0,0009.79,0003.51,0002.43
2022-09-21 03:15:00,,0828.4,4.99,0.00,29.8,28.8,00.0,38.4,31.8,17.2,0000.0,0009.98,0003.48,0002.41
2022-09-21 03:16:00,,0828.4,5.01,0.00,29.9,27.9,00.0,38.4,31.8,17.2,0000.0,0009.92,0003.47,0002.40
2022-09-21 03:17:00,,0828.6,4.99,0.00,29.8,27.0,00.0,38.4,31.7,17.2,0000.0,0009.26,0003.45,0002.39
2022-09-21 03:18:00,,0828.6,5.00,0.00,29.8,27.1,00.0,38.4,31.7,17.2,0000.0,0008.66,0003.40,0002.38
2022-09-21 03:19:00,,0828.9,4.99,0.00,29.7,27.3,00.0,38.4,31.5,17.3,0000.0,0008.44,0003.37,0002.39
2022-09-21 03:20:00,,0829.1,5.01,0.00,29.7,27.6,00.0,38.4,31.5,17.4,0000.0,0008.40,0003.34,0002.39
2022-09-21 03:21:00,,0829.0,5.00,0.00,29.7,27.8,00.0,38.4,31.5,17.5,0000.0,0008.35,0003.32,0002.39
2022-09-21 03:22:00,,0829.1,4.99,0.00,29.7,28.0,00.0,38.4,31.5,17.4,0000.0,0008.35,0003.34,0002.40
2022-09-21 03:23:00,,0828.8,5.01,0.00,29.7,28.2,00.0,38.4,31.6,17.5,0000.0,0008.24,0003.31,0002.40
2022-09-21 03:24:00,,0829.1,4.99,0.00,29.8,28.4,00.0,38.4,31.7,17.5,0000.0,0008.07,0003.26,0002.42
2022-09-21 03:25:00,,0828.9,4.99,0.00,29.8,28.5,00.0,38.4,31.7,17.5,0000.0,0008.53,0003.29,0002.43
2022-09-21 03:26:00,,0829.1,5.01,0.00,29.8,28.6,00.0,38.5,31.7,17.5,0000.0,0008.07,0003.29,0002.43
2022-09-21 03:27:00,,0828.8,4.99,0.00,29.8,28.7,00.0,38.5,31.8,17.6,0000.0,0008.22,0003.32,0002.44
2022-09-21 03:28:00,,0828.9,5.00,0.00,29.9,28.8,00.0,38.5,31.8,17.6,0000.0,0008.33,0003.33,0002.45
2022-09-21 03:29:00,,0828.9,5.00,0.00,29.9,28.9,00.0,38.5,31.9,17.7,0000.0,0008.29,0003.34,0002.45
2022-09-21 03:30:00,,0828.7,5.01,0.00,30.0,28.5,00.0,38.5,31.9,17.7,0000.0,0008.29,0003.34,0002.44
2022-09-21 03:31:00,,0828.8,5.01,0.00,29.9,27.0,00.0,38.5,31.8,17.8,0000.0,0008.58,0003.38,0002.44
2022-09-21 03:32:00,,0829.1,5.00,0.00,29.9,26.3,00.0,38.4,31.7,17.9,0000.0,0008.35,0003.35,0002.43
2022-09-21 03:33:00,,0829.3,4.99,0.00,29.8,26.4,00.0,38.4,31.6,18.0,0000.0,0008.41,0003.33,0002.44
2022-09-21 03:34:00,,0829.2,5.00,0.00,29.7,26.7,00.0,38.4,31.4,18.2,0000.0,0008.54,0003.37,0002.45
2022-09-21 03:35:00,,0829.3,4.99,0.00,29.7,27.1,00.0,38.4,31.4,18.2,0000.0,0008.61,0003.41,0002.44
2022-09-21 03:36:00,,0829.2,4.99,0.00,29.7,27.5,00.0,38.4,31.4,18.3,0000.0,0008.31,0003.41,0002.43
2022-09-21 03:37:00,,0829.4,5.01,0.00,29.7,27.7,00.0,38.3,31.4,18.2,0000.0,0008.76,0003.41,0002.43
2022-09-21 03:38:00,,0829.4,5.00,0.00,29.7,27.9,00.0,38.4,31.5,18.1,0000.0,0008.72,0003.43,0002.43
2022-09-21 03:39:00,,0829.2,4.99,0.00,29.7,28.1,00.0,38.4,31.5,18.1,0000.0,0008.89,0003.44,0002.43
2022-09-21 03:40:00,,0829.2,5.02,0.00,29.7,28.3,00.0,38.4,31.6,18.2,0000.0,0009.81,0003.44,0002.43
2022-09-21 03:41:00,,0829.3,4.99,0.00,29.7,28.4,00.0,38.4,31.6,18.2,0000.0,0010.23,0003.48,0002.45
2022-09-21 03:42:00,,0829.2,5.01,0.00,29.7,28.5,00.0,38.4,31.7,18.1,0000.0,0011.63,0003.49,0002.46
2022-09-21 03:43:00,,0828.9,5.02,0.00,29.8,28.6,00.0,38.4,31.7,18.1,0000.0,0012.33,0003.54,0002.48
2022-09-21 03:44:00,,0828.8,5.00,0.00,29.8,28.7,00.0,38.4,31.7,18.2,0000.0,0012.57,0003.57,0002.47
2022-09-21 03:45:00,,0828.9,5.00,0.00,29.8,28.8,00.0,38.5,31.8,18.2,0000.0,0012.86,0003.56,0002.47
2022-09-21 03:46:00,,0828.9,5.00,0.00,29.9,28.8,00.0,38.5,31.8,18.2,0000.0,0013.33,0003.54,0002.48
2022-09-21 03:47:00,,0829.0,5.01,0.00,29.9,27.7,00.0,38.5,31.8,18.2,0000.0,0013.38,0003.52,0002.49
2022-09-21 03:48:00,,0828.9,4.99,0.00,29.9,26.3,00.0,38.4,31.7,18.3,0000.0,0013.14,0003.56,0002.53
2022-09-21 03:49:00,,0828.8,5.01,0.00,29.8,26.2,00.0,38.4,31.6,18.4,0000.0,0013.74,0003.56,0002.54
2022-09-21 03:50:00,,0828.9,5.00,0.00,29.7,26.4,00.0,38.4,31.4,18.6,0000.0,0013.79,0003.59,0002.57
2022-09-21 03:51:00,,0828.8,5.00,0.00,29.6,26.8,00.0,38.3,31.3,18.7,0000.0,0012.76,0003.58,0002.59
2022-09-21 03:52:00,,0829.3,5.00,0.00,29.6,27.2,00.0,38.3,31.3,18.8,0000.0,0012.40,0003.56,0002.59
2022-09-21 03:53:00,,0829.2,5.00,0.00,29.6,27.4,00.0,38.3,31.4,18.8,0000.0,0010.93,0003.55,0002.58
2022-09-21 03:54:00,,0829.0,5.01,0.00,29.6,27.7,00.0,38.3,31.4,18.9,0000.0,0010.62,0003.55,0002.58
2022-09-21 03:55:00,,0828.8,4.99,0.00,29.6,27.9,00.0,38.3,31.4,18.9,0000.0,0010.76,0003.56,0002.59
2022-09-21 03:56:00,,0828.9,5.01,0.00,29.6,28.1,00.0,38.3,31.5,18.9,0000.0,0010.36,0003.55,0002.58
2022-09-21 03:57:00,,0828.7,4.99,0.00,29.6,28.3,00.0,38.3,31.5,18.9,0000.0,0010.69,0003.58,0002.58
2022-09-21 03:58:00,,0828.7,4.99,0.00,29.7,28.4,00.0,38.3,31.6,18.9,0000.0,0010.33,0003.61,0002.58
2022-09-21 03:59:00,,0828.8,5.01,0.00,29.7,28.5,00.0,38.3,31.6,18.6,0000.0,0010.52,0003.56,0002.55
